TimePST,TemperatureF,Dew PointF,Humidity,Sea Level PressureIn,VisibilityMPH,Wind Direction,Wind SpeedMPH,Gust SpeedMPH,PrecipitationIn,Events,Conditions,WindDirDegrees,DateUTC
12:22 AM,26.6,24.8,93,29.82,10.0,Calm,Calm,-,N/A,,Mostly Cloudy,0,2012-12-13 08:22:00
12:55 AM,27.0,24.1,89,29.88,10.0,North,3.5,-,N/A,,Mostly Cloudy,10,2012-12-13 08:55:00
1:55 AM,27.0,24.1,89,29.88,10.0,Calm,Calm,-,N/A,,Overcast,0,2012-12-13 09:55:00
2:55 AM,26.1,21.9,84,29.88,10.0,North,6.9,-,N/A,,Scattered Clouds,360,2012-12-13 10:55:00
4:55 AM,19.9,18.0,92,29.91,10.0,Calm,Calm,-,N/A,,Scattered Clouds,0,2012-12-13 12:55:00
5:55 AM,21.0,19.0,92,29.91,10.0,Calm,Calm,-,N/A,,Mostly Cloudy,0,2012-12-13 13:55:00
6:55 AM,21.0,17.1,85,29.93,10.0,Calm,Calm,-,N/A,,Mostly Cloudy,0,2012-12-13 14:55:00
7:55 AM,25.0,21.0,85,29.94,10.0,Variable,3.5,-,N/A,,Overcast,0,2012-12-13 15:55:00
8:55 AM,26.1,21.9,84,29.95,10.0,Variable,3.5,-,N/A,,Overcast,0,2012-12-13 16:55:00
9:55 AM,27.0,23.0,85,29.95,10.0,WNW,3.5,-,N/A,,Overcast,300,2012-12-13 17:55:00
10:55 AM,30.9,23.0,72,29.93,10.0,North,3.5,-,N/A,,Mostly Cloudy,10,2012-12-13 18:55:00
11:55 AM,33.1,25.0,72,29.90,10.0,Variable,4.6,-,N/A,,Mostly Cloudy,0,2012-12-13 19:55:00
12:55 PM,33.1,25.0,72,29.89,10.0,Variable,3.5,-,N/A,,Mostly Cloudy,0,2012-12-13 20:55:00
1:02 PM,33.8,24.8,70,29.83,10.0,NW,3.5,-,N/A,,Mostly Cloudy,320,2012-12-13 21:02:00
1:16 PM,33.8,24.8,70,29.83,10.0,North,4.6,-,N/A,,Overcast,360,2012-12-13 21:16:00
1:55 PM,32.0,23.0,69,29.87,10.0,Calm,Calm,-,N/A,,Mostly Cloudy,0,2012-12-13 21:55:00
4:42 PM,30.2,26.6,86,29.83,10.0,South,4.6,-,N/A,,Overcast,180,2012-12-14 00:42:00
5:55 PM,28.0,25.0,88,29.90,10.0,SSE,3.5,-,N/A,,Overcast,150,2012-12-14 01:55:00
6:55 PM,24.1,23.0,96,29.90,10.0,Calm,Calm,-,N/A,,Partly Cloudy,0,2012-12-14 02:55:00
7:55 PM,21.9,21.0,96,29.88,9.0,Calm,Calm,-,N/A,,Clear,0,2012-12-14 03:55:00
8:55 PM,23.0,21.0,92,29.87,6.0,Calm,Calm,-,N/A,,Clear,0,2012-12-14 04:55:00
9:55 PM,19.0,17.1,92,29.88,10.0,South,3.5,-,N/A,,Clear,190,2012-12-14 05:55:00
10:44 PM,17.6,15.8,93,29.79,2.5,Calm,Calm,-,N/A,,Clear,0,2012-12-14 06:44:00
10:51 PM,19.4,15.8,86,29.79,5.0,Calm,Calm,-,N/A,,Clear,0,2012-12-14 06:51:00
10:55 PM,18.0,16.0,92,29.87,7.0,WNW,3.5,-,N/A,,Clear,300,2012-12-14 06:55:00
11:48 PM,17.6,15.8,93,29.79,2.5,East,3.5,-,N/A,,Clear,100,2012-12-14 07:48:00
11:55 PM,18.0,16.0,92,29.86,3.0,ENE,3.5,-,N/A,,Clear,70,2012-12-14 07:55:00